FW1000 Weather Reports


Display with metric or nautical units.
time (UTC)temp
F
wind
direction
speed
MPH
gust
MPH
rain 1hr
in
rain 24hr
in
rain mn
in
humidity
%
barometer
mb
20260510084535 71 94 0.0 0.0 0.00 0.02 0.00 80 992.9
20260510083030 71 94 0.0 0.0 0.00 0.02 0.00 80 992.8
20260510081531 71 94 0.0 0.0 0.00 0.02 0.00 80 993.0
20260510080029 71 94 0.0 0.0 0.00 0.02 0.00 80 992.8
20260510074529 71 94 0.0 0.0 0.00 0.02 0.00 80 992.7
20260510073031 71 94 0.0 0.0 0.00 0.02 0.00 80 992.6
20260510071528 71 94 0.0 0.0 0.00 0.02 0.00 80 992.6
20260510070032 71 94 0.0 0.0 0.00 0.02 0.00 80 992.7
20260510064532 71 270 0.0 0.0 0.00 0.02 0.00 80 992.6
20260510063024 71 270 0.0 0.0 0.00 0.02 0.00 80 992.9
20260510061524 71 270 0.0 0.0 0.00 0.02 0.00 81 993.0
20260510060023 71 270 0.0 0.0 0.00 0.02 0.00 81 993.3
20260510054520 71 270 0.0 0.0 0.00 0.02 0.00 81 993.4
20260510053023 71 270 0.0 0.0 0.00 0.02 0.00 81 993.7
20260510051517 71 270 0.0 0.0 0.00 0.02 0.00 82 993.9
20260510050015 71 270 0.0 0.0 0.00 0.02 0.00 82 994.2
20260510044518 71 260 0.0 0.0 0.00 0.02 0.00 82 994.0
20260510043016 71 260 0.0 0.0 0.00 0.02 0.00 82 994.1
20260510041515 71 260 0.0 0.0 0.00 0.02 0.00 82 994.1
20260510040011 72 260 0.0 0.0 0.00 0.02 0.00 82 994.0
20260510034518 72 260 0.0 0.0 0.00 0.03 0.02 82 994.2
20260510033014 72 260 0.0 0.0 0.00 0.03 0.02 82 994.2
20260510031509 72 260 0.0 0.0 0.00 0.03 0.02 83 994.1
20260510030011 72 260 0.0 0.0 0.00 0.03 0.02 83 994.0
20260510024507 72 260 0.0 0.0 0.00 0.03 0.02 83 994.0
20260510023007 72 260 0.0 0.0 0.00 0.03 0.02 83 993.7
20260510021516 72 260 0.0 0.0 0.00 0.03 0.02 83 993.2
20260510020006 72 260 0.0 0.0 0.00 0.03 0.02 83 993.0
20260510014505 72 260 0.0 0.0 0.00 0.03 0.02 83 993.0
20260510013007 72 260 0.0 0.0 0.00 0.03 0.02 83 993.0
20260510011508 72 260 0.0 0.0 0.00 0.03 0.02 84 992.4
20260510010004 72 260 0.0 0.0 0.00 0.03 0.02 84 992.4
20260510004503 72 260 0.0 0.0 0.00 0.03 0.02 84 992.9
20260510003003 72 260 0.0 0.0 0.00 0.03 0.02 84 992.8
20260510001503 72 260 0.0 0.0 0.00 0.03 0.02 85 993.0
20260510000001 72 259 0.0 0.0 0.00 0.03 0.02 85 992.8
20260509234502 72 259 0.0 0.0 0.00 0.03 0.02 85 992.7
20260509233036 72 259 0.0 0.0 0.00 0.03 0.02 85 992.6
20260509231534 72 259 0.0 0.0 0.00 0.03 0.02 85 992.6
20260509230032 72 259 0.0 0.0 0.00 0.03 0.02 85 992.7
20260509224545 73 259 0.0 0.0 0.00 0.03 0.02 85 992.5
20260509223031 73 259 0.0 0.0 0.00 0.03 0.02 85 992.8
20260509221532 72 259 0.0 0.0 0.00 0.03 0.02 86 992.5
20260509220032 73 252 0.0 0.0 0.00 0.03 0.02 86 992.7
20260509214530 73 265 0.0 0.0 0.00 0.03 0.02 86 992.6
20260509213030 73 131 0.0 0.0 0.00 0.03 0.02 86 992.6
20260509211529 74 82 0.0 0.0 0.00 0.03 0.02 85 992.4
20260509210028 74 82 0.0 0.0 0.00 0.03 0.02 85 992.2
20260509204528 74 82 0.0 0.0 0.01 0.03 0.02 86 992.2
20260509203033 74 82 0.0 0.0 0.01 0.03 0.02 86 992.3
20260509201527 74 82 0.0 0.0 0.01 0.03 0.02 86 992.2
20260509200025 74 82 0.0 0.0 0.02 0.03 0.02 86 992.1
20260509194527 74 82 0.0 0.0 0.01 0.02 0.01 85 992.3
20260509193024 75 82 0.0 0.0 0.01 0.02 0.01 85 992.3
20260509191523 76 82 0.0 0.0 0.01 0.02 0.01 84 992.1
20260509190022 76 82 0.0 0.0 0.00 0.01 0.00 81 992.0
20260509184534 78 82 0.0 0.0 0.00 0.01 0.00 80 992.1
20260509183021 78 82 0.0 0.0 0.00 0.01 0.00 79 992.4
20260509181520 78 82 0.0 0.0 0.00 0.01 0.00 79 992.3
20260509180019 79 82 0.0 0.0 0.00 0.01 0.00 78 992.6
20260509174522 78 82 0.0 0.0 0.00 0.01 0.00 79 992.9
20260509173019 79 82 0.0 0.0 0.00 0.01 0.00 78 993.0
20260509171517 79 82 0.0 0.0 0.00 0.01 0.00 78 992.8
20260509170024 78 82 0.0 0.0 0.00 0.01 0.00 80 993.0
20260509164513 77 82 0.0 0.0 0.00 0.01 0.00 80 992.8
20260509163016 77 82 0.0 0.0 0.00 0.01 0.00 80 993.0
20260509161513 77 60 0.0 0.0 0.00 0.01 0.00 81 993.2
20260509160012 76 65 0.0 0.0 0.00 0.01 0.00 81 993.0
20260509154516 76 86 0.0 0.0 0.00 0.01 0.00 83 993.0
20260509153012 76 86 0.0 0.0 0.00 0.01 0.00 82 993.2
20260509151510 77 86 0.0 0.0 0.00 0.01 0.00 80 993.3
20260509150009 78 86 0.0 0.0 0.00 0.01 0.00 80 993.7
20260509144509 77 86 0.0 0.0 0.00 0.01 0.00 82 993.5
20260509143009 77 86 0.0 0.0 0.00 0.01 0.00 82 993.6
20260509141503 76 86 0.0 0.0 0.00 0.01 0.00 83 993.2
20260509140058 75 86 0.0 1.0 0.00 0.01 0.00 84 993.5
20260509134557 75 269 0.0 0.0 0.00 0.01 0.00 84 993.5
20260509133106 74 268 0.0 1.0 0.00 0.01 0.00 84 993.1
20260509131555 74 246 0.0 0.0 0.00 0.01 0.00 85 992.8
20260509130105 74 246 0.0 0.0 0.00 0.01 0.00 85 992.6
20260509124552 74 242 0.0 0.0 0.00 0.01 0.00 86 992.6
20260509123049 73 242 0.0 0.0 0.00 0.01 0.00 86 992.6
20260509121551 72 242 0.0 0.0 0.00 0.01 0.00 86 992.3
20260509120042 72 242 0.0 0.0 0.00 0.01 0.00 86 992.3
20260509114538 72 233 0.0 0.0 0.00 0.01 0.00 86 992.2
20260509113039 72 203 0.0 1.0 0.00 0.01 0.00 86 991.4
20260509111537 72 226 0.0 0.0 0.00 0.01 0.00 86 991.2
20260509110036 72 229 0.0 2.0 0.00 0.01 0.00 86 990.8
20260509104548 71 352 0.0 3.0 0.00 0.01 0.00 86 990.8
20260509103035 71 209 0.0 8.0 0.00 0.01 0.00 86 990.9
20260509101537 70 153 0.0 2.0 0.00 0.01 0.00 86 990.8
20260509100032 69 79 0.0 0.0 0.00 0.01 0.00 86 991.1
20260509094534 70 309 0.0 0.0 0.00 0.01 0.00 86 991.6
20260509093030 71 309 0.0 0.0 0.00 0.01 0.00 86 991.6
20260509091531 72 79 0.0 0.0 0.00 0.01 0.00 86 991.4
20260509090043 72 40 0.0 0.0 0.00 0.01 0.00 85 991.4